Stations météo

Publicité
Strasbourg, France (7190): Température de l'air & dewpoint: 17.11.2017 12:00:00 - 23.11.2017 12:00:00 (CET)Strasbourg, France (7190): Température de l'air 5cm: 17.11.2017 12:00:00 - 23.11.2017 12:00:00 (CET)Strasbourg, France (7190): Température de l'air -20cm & Température de l'air -100cm: 17.11.2017 12:00:00 - 23.11.2017 12:00:00 (CET)Strasbourg, France (7190): Vitesse du vent & gusts: 17.11.2017 12:00:00 - 23.11.2017 12:00:00 (CET)Strasbourg, France (7190): Direction du vent: 17.11.2017 12:00:00 - 23.11.2017 12:00:00 (CET)Strasbourg, France (7190): reduced air pressure: 17.11.2017 12:00:00 - 23.11.2017 12:00:00 (CET)Strasbourg, France (7190): visibility: 17.11.2017 12:00:00 - 23.11.2017 12:00:00 (CET)Strasbourg, France (7190): Quantités de précipitations: 17.11.2017 12:00:00 - 23.11.2017 12:00:00 (CET)
Date & Time tt [°C] td [°C] tt 5cm [°C] tt -20cm [°C] tt -100cm [°C] ff [km/h] ff [knt] fx [km/h] fx [knt] dd ppp [hPa] vv [km] rr [mm]
23.11.2017 12:00:00 13,2 4,9 12,2 5,5 9,9 22 12 42 23 S 1011,3 10 0,0
23.11.2017 11:00:00 11,7 3,5 10,1 5,4 9,9 26 14 44 24 S 1011,2 10 0,0
23.11.2017 10:00:00 10,4 3,2 7,7 5,4 9,9 24 13 38 21 S 1010,6 44 0,0
23.11.2017 09:00:00 8,5 2,9 5,6 5,5 9,9 15 8 30 16 S 1010,6 10 0,0
23.11.2017 08:00:00 7,7 2,6 5,6 5,5 9,9 11 6 24 13 S 1010,0 10 0,0
23.11.2017 07:00:00 7,5 2,8 2,9 5,6 9,9 11 6 30 16 SSW 1009,9 10 0,0
23.11.2017 06:00:00 5,3 1,9 2,4 5,7 9,9 8 4 21 11 SSW 1009,8 10 0,0
23.11.2017 05:00:00 6,2 2,1 2,1 5,8 9,9 11 6 30 16 S 1010,0 10 0,0
23.11.2017 04:00:00 5,4 1,5 2,3 5,9 9,9 5 3 23 12 SE 1010,1 10 0,0
23.11.2017 03:00:00 5,8 2,1 1,4 6,0 10,0 15 8 22 12 SSE 1010,3 10 0,0
23.11.2017 02:00:00 4,7 1,9 1,2 6,1 9,9 11 6 16 9 SSE 1010,1 10 0,0
23.11.2017 01:00:00 5,6 2,1 3,7 6,3 10,0 9 5 23 13 S 1010,2 10 0,0
23.11.2017 00:00:00 6,8 2,9 2,7 6,4 10,0 18 10 25 13 S 1010,2 10 0,0
22.11.2017 23:00:00 8,6 3,4 2,5 6,5 10,0 6 4 23 13 S 1010,0 37 0,0
22.11.2017 22:00:00 5,4 3,2 1,6 6,6 9,9 9 5 18 10 SSW 1010,4 10 0,0
22.11.2017 21:00:00 4,6 2,5 1,6 6,8 10,0 5 3 10 5 ESE 1010,7 10 0,0
22.11.2017 20:00:00 6,6 3,4 2,3 6,8 10,0 2 1 10 5 - 1010,9 10 0,0
22.11.2017 19:00:00 8,6 4,6 4,7 6,8 10,0 5 3 14 8 S 1011,1 10 0,0
22.11.2017 18:00:00 8,8 4,0 4,7 6,7 10,0 13 7 18 10 S 1011,2 10 0,0
22.11.2017 17:00:00 10,6 4,7 6,1 6,6 10,0 5 3 10 5 SE 1011,2 50 0,0
22.11.2017 16:00:00 13,8 6,2 15,7 6,2 10,0 5 3 16 9 S 1011,4 60 0,0
22.11.2017 15:00:00 15,4 6,4 18,7 5,9 10,0 13 7 21 11 S 1011,6 10 0,0
22.11.2017 14:00:00 15,6 6,6 19,2 5,6 10,0 11 6 19 10 S 1012,2 10 0,0
22.11.2017 13:00:00 15,2 7,0 17,7 5,3 10,0 8 4 18 10 S 1012,7 44 0,0
22.11.2017 12:00:00 13,1 6,4 13,4 5,2 10,0 12 7 18 10 S 1013,6 48 0,0
22.11.2017 11:00:00 11,1 6,2 10,7 5,2 10,0 9 5 17 9 SW 1014,3 10 0,0
22.11.2017 10:00:00 6,6 5,2 4,5 5,3 10,0 2 1 8 4 - 1014,6 10 0,0
22.11.2017 09:00:00 3,4 2,7 0,6 5,5 10,0 0 0 7 4 N 1014,7 10 0,0
22.11.2017 08:00:00 1,5 0,9 -0,9 5,6 10,0 5 3 8 4 N 1015,0 8 0,0
22.11.2017 07:00:00 2,0 1,6 -0,9 5,7 10,0 6 3 12 7 NNW 1014,9 8 0,0
22.11.2017 06:00:00 2,6 1,9 0,1 5,8 10,0 5 3 14 8 - 1015,4 10 0,0
22.11.2017 05:00:00 2,6 2,2 0,0 5,9 10,0 4 2 11 6 - 1015,6 10 0,0
22.11.2017 04:00:00 2,4 1,7 0,5 6,0 10,0 2 1 11 6 - 1015,7 10 0,0
22.11.2017 03:00:00 2,7 1,8 0,0 6,1 10,1 5 3 11 6 - 1015,9 10 0,0
22.11.2017 02:00:00 3,8 3,4 0,3 6,3 10,1 4 2 14 7 SW 1016,3 26 0,0
22.11.2017 01:00:00 2,6 1,7 0,1 6,4 10,1 0 0 10 5 N 1016,5 10 0,0
22.11.2017 00:00:00 2,9 1,9 0,8 6,6 10,1 8 4 15 8 W 1016,9 14 0,0
21.11.2017 23:00:00 3,3 2,4 0,3 6,7 10,1 5 3 8 5 WNW 1017,0 10 0,0
21.11.2017 22:00:00 4,3 3,0 1,7 6,8 10,1 4 2 14 8 - 1016,9 10 0,0
21.11.2017 21:00:00 5,2 3,7 2,3 6,9 10,1 5 3 13 7 - 1016,9 10 0,0
21.11.2017 20:00:00 6,8 4,9 3,9 7,0 10,1 5 3 19 10 N 1017,1 22 0,0
21.11.2017 19:00:00 8,9 5,3 4,6 6,9 10,1 11 6 25 14 S 1017,1 10 0,0
21.11.2017 18:00:00 8,2 5,7 5,9 6,9 10,1 4 2 16 9 - 1017,1 10 0,0
21.11.2017 17:00:00 8,9 6,2 7,6 6,7 10,1 10 6 17 9 SW 1017,0 40 0,0
21.11.2017 16:00:00 11,4 7,5 11,1 6,6 10,1 11 6 21 12 SSW 1016,7 10 0,0
21.11.2017 15:00:00 10,8 7,1 11,1 6,3 10,1 13 7 22 12 S 1017,0 10 0,0
21.11.2017 14:00:00 10,5 6,6 - - - 13 7 26 14 S 1017,3 10 0,0
21.11.2017 13:00:00 10,4 6,3 12,0 5,9 10,1 16 9 26 14 S 1018,1 10 0,0
21.11.2017 12:00:00 9,8 6,5 8,1 5,8 10,2 16 9 22 12 S 1018,8 10 0,0
21.11.2017 11:00:00 7,3 5,3 6,1 5,8 10,2 13 7 28 15 S 1019,7 10 0,0
21.11.2017 10:00:00 6,4 5,0 5,8 5,7 10,2 18 10 32 18 S 1019,7 18 0,2
21.11.2017 09:00:00 6,0 5,0 5,5 5,7 10,2 16 9 27 15 S 1019,7 10 0,6
21.11.2017 08:00:00 6,0 4,8 5,5 5,7 10,2 16 9 26 14 S 1019,5 10 0,6
21.11.2017 07:00:00 6,3 4,8 5,5 5,6 10,2 20 11 32 17 S 1019,2 27 0,2
21.11.2017 06:00:00 6,4 4,6 5,5 5,6 10,2 21 11 32 18 S 1019,2 10 0,0
21.11.2017 05:00:00 6,2 4,2 5,5 5,5 10,2 21 11 36 19 S 1019,2 10 0,0
21.11.2017 04:00:00 6,7 4,4 5,8 5,5 10,2 18 10 29 15 S 1019,0 10 0,0
21.11.2017 03:00:00 6,5 4,5 5,8 5,5 10,3 13 7 27 14 S 1019,4 10 0,0
21.11.2017 02:00:00 6,5 4,8 5,2 5,4 10,2 16 9 28 15 S 1019,3 10 0,0
21.11.2017 01:00:00 5,9 4,4 5,0 5,4 10,3 11 6 22 12 SSE 1019,9 10 0,6
21.11.2017 00:00:00 6,3 4,0 4,9 5,3 10,3 7 4 31 17 W 1020,7 20 0,0
20.11.2017 23:00:00 6,0 3,8 4,9 5,3 10,3 16 9 26 14 S 1019,6 15 0,4
20.11.2017 22:00:00 6,3 3,3 5,4 5,2 10,3 16 9 30 16 S 1020,2 10 0,0
20.11.2017 21:00:00 5,7 2,9 4,9 5,2 10,3 18 10 38 21 S 1019,9 10 0,0
20.11.2017 20:00:00 5,2 2,5 4,4 5,2 10,3 19 11 37 20 S 1020,1 20 0,0
20.11.2017 19:00:00 5,0 3,0 4,1 5,1 10,3 18 10 33 18 S 1020,9 14 0,0
20.11.2017 18:00:00 5,0 2,7 4,1 5,1 10,3 21 11 36 19 S 1020,9 10 0,0
20.11.2017 17:00:00 4,9 2,8 4,5 5,0 10,3 21 11 31 17 S 1021,4 10 0,0
20.11.2017 16:00:00 4,7 3,0 4,5 4,9 10,3 15 8 24 13 S 1022,2 10 0,0
20.11.2017 15:00:00 4,3 2,6 4,4 4,8 10,3 16 9 26 14 S 1022,5 10 0,0
20.11.2017 14:00:00 4,1 2,1 4,4 4,8 10,3 11 6 17 9 SSW 1023,2 10 0,0
20.11.2017 13:00:00 3,4 1,8 3,1 4,7 10,3 8 4 17 9 SSW 1023,8 10 0,0
20.11.2017 12:00:00 2,4 1,1 2,3 4,7 10,3 9 5 18 10 S 1024,7 10 0,0
20.11.2017 11:00:00 1,5 0,2 1,9 4,7 10,3 8 4 17 9 S 1026,1 10 0,0
20.11.2017 10:00:00 1,1 0,2 0,5 4,8 10,4 9 5 17 9 S 1025,7 9 0,0
20.11.2017 09:00:00 0,3 0,0 -0,4 4,8 10,3 8 4 12 7 S 1025,6 4,7 0,0
20.11.2017 08:00:00 -0,2 -0,5 -0,6 5,0 10,4 5 3 11 6 - 1025,5 5 0,0
20.11.2017 07:00:00 -0,3 -0,6 -0,8 5,1 10,4 4 2 13 7 S 1025,4 0,4 0,0
20.11.2017 06:00:00 -0,1 -0,5 -1,8 5,2 10,4 8 4 12 6 SSW 1025,2 2,2 0,0
20.11.2017 05:00:00 -0,2 -0,9 -2,3 5,3 10,3 4 2 13 7 - 1025,4 9 0,0
20.11.2017 04:00:00 -0,2 -1,3 -1,9 5,5 10,4 5 3 18 10 SW 1025,7 10 0,0
20.11.2017 03:00:00 0,3 -1,1 -0,7 5,6 10,4 11 6 20 11 SSW 1025,8 10 0,0
20.11.2017 02:00:00 0,0 -1,3 -1,8 5,8 10,3 15 8 21 11 SSW 1025,9 10 0,0
20.11.2017 01:00:00 0,9 -0,3 -1,1 5,9 10,4 11 6 19 10 SSE 1026,1 10 0,0
20.11.2017 00:00:00 1,0 -0,9 -0,8 6,1 10,4 9 5 16 9 S 1026,1 10 0,0
19.11.2017 23:00:00 2,3 -0,6 -0,2 6,2 10,4 8 4 12 6 SE 1025,7 10 0,0
19.11.2017 22:00:00 2,4 0,0 0,2 6,3 10,4 8 4 23 13 E 1025,6 10 0,0
19.11.2017 21:00:00 4,9 0,3 2,3 6,5 10,4 16 9 25 13 W 1024,8 10 0,0
19.11.2017 20:00:00 3,8 0,1 1,7 6,5 10,4 9 5 19 10 SW 1024,4 10 0,0
19.11.2017 19:00:00 3,9 0,2 1,5 6,6 10,4 6 4 23 13 ENE 1023,7 45 0,0
19.11.2017 18:00:00 5,4 0,6 3,9 6,6 10,4 18 10 26 14 W 1022,8 10 0,0
19.11.2017 17:00:00 5,7 0,5 4,1 6,6 10,4 13 7 24 13 W 1022,8 10 0,0
19.11.2017 16:00:00 7,9 -0,1 9,3 6,4 10,4 18 10 34 18 W 1022,0 10 0,0
19.11.2017 15:00:00 8,5 0,7 8,0 6,3 10,4 22 12 34 19 W 1021,6 20 0,0
19.11.2017 14:00:00 8,2 0,7 8,5 6,2 10,4 16 9 35 19 WNW 1021,4 10 0,0
19.11.2017 13:00:00 8,5 0,9 11,0 6,1 10,4 22 12 35 19 WNW 1021,2 10 0,0
19.11.2017 12:00:00 8,4 2,6 7,8 6,0 10,4 18 10 36 19 WNW 1021,3 10 0,0
19.11.2017 11:00:00 6,8 1,5 7,0 6,0 10,4 24 13 38 20 WNW 1021,2 49 0,0
19.11.2017 10:00:00 7,5 2,4 5,9 6,1 10,5 15 8 27 15 WNW 1020,5 10 0,0
19.11.2017 09:00:00 5,7 2,2 3,8 6,1 10,4 13 7 22 12 WNW 1020,1 10 0,0
19.11.2017 08:00:00 4,6 3,3 4,0 6,2 10,5 4 2 28 15 - 1019,5 10 0,0
19.11.2017 07:00:00 4,2 2,9 3,8 6,2 10,5 18 10 32 17 SSW 1018,7 10 0,0
19.11.2017 06:00:00 4,0 2,7 3,7 6,3 10,5 21 11 32 17 S 1018,4 10 0,0
19.11.2017 05:00:00 4,0 2,5 3,2 6,3 10,4 16 9 37 20 S 1018,6 10 0,0
19.11.2017 04:00:00 3,8 2,6 3,3 6,4 10,4 24 13 37 20 S 1018,3 10 1,4
19.11.2017 03:00:00 3,8 2,8 3,3 6,5 10,5 19 10 28 15 S 1019,5 8 1,4
19.11.2017 02:00:00 3,8 2,6 3,3 6,5 10,5 11 6 23 12 S 1020,6 8 1,4
19.11.2017 01:00:00 3,9 2,6 3,3 6,6 10,5 15 8 27 14 S 1021,3 7 0,8
19.11.2017 00:00:00 3,9 2,3 3,2 6,7 10,5 13 7 24 13 S 1021,7 10 0,2
18.11.2017 23:00:00 4,5 2,2 3,4 6,7 10,5 13 7 28 15 S 1022,0 10 0,2
18.11.2017 22:00:00 4,9 1,7 3,6 6,8 10,5 15 8 28 15 SSW 1022,4 10 0,2
18.11.2017 21:00:00 5,2 0,6 - - - 13 7 22 12 S 1022,8 10 0,0
18.11.2017 20:00:00 5,2 1,1 4,6 6,8 10,5 8 4 18 10 SSW 1023,6 10 0,0
18.11.2017 19:00:00 5,4 0,8 4,9 6,9 10,6 11 6 25 13 SSW 1023,6 10 0,0
18.11.2017 18:00:00 5,6 0,6 4,8 6,8 10,5 13 7 21 11 SSW 1023,6 51 0,0
18.11.2017 17:00:00 5,3 0,5 4,8 6,8 10,6 13 7 26 14 SW 1023,7 49 0,0
18.11.2017 16:00:00 6,5 0,0 6,3 6,7 10,5 21 11 38 20 W 1023,9 10 0,0
18.11.2017 15:00:00 7,7 0,2 8,4 6,6 10,6 22 12 35 19 W 1023,6 10 0,0
18.11.2017 14:00:00 7,5 -0,2 8,2 6,4 10,5 22 12 33 18 W 1023,7 10 0,0
18.11.2017 13:00:00 8,7 0,9 9,1 6,3 10,6 18 10 27 15 W 1024,1 10 0,0
18.11.2017 12:00:00 7,8 2,3 7,9 6,2 10,6 11 6 17 9 SSW 1024,6 10 0,0
18.11.2017 11:00:00 6,6 3,6 6,5 6,2 10,6 9 5 17 9 SW 1025,2 10 0,0
18.11.2017 10:00:00 5,7 3,0 5,5 6,2 10,6 9 5 16 9 SW 1025,2 10 0,0
18.11.2017 09:00:00 5,1 3,9 4,9 6,2 10,6 10 5 16 9 S 1025,0 9 0,0
18.11.2017 08:00:00 5,0 4,1 4,7 6,2 10,6 8 4 16 9 S 1025,0 6 0,0
18.11.2017 07:00:00 5,0 4,6 4,9 6,1 10,6 11 6 16 9 SSW 1025,1 4,6 0,0
18.11.2017 06:00:00 5,1 4,8 4,9 6,1 10,6 8 5 12 7 SSW 1025,1 1,8 0,0
18.11.2017 05:00:00 5,2 4,9 5,1 6,1 10,6 5 3 9 5 SSW 1025,2 1,6 0,0
18.11.2017 04:00:00 5,2 4,6 5,1 6,1 10,6 0 0 5 3 N 1025,5 1,3 0,0
18.11.2017 03:00:00 5,2 4,5 5,1 6,1 10,7 3 2 8 4 NNE 1025,7 1,9 0,0
18.11.2017 02:00:00 5,2 4,5 4,9 6,1 10,7 4 2 8 4 NNE 1026,0 4,8 0,0
18.11.2017 01:00:00 5,1 4,4 4,9 6,1 10,7 3 2 5 3 N 1025,8 3,4 0,0
18.11.2017 00:00:00 5,2 4,3 4,9 6,1 10,7 2 1 8 5 N 1026,1 6 0,0
17.11.2017 23:00:00 5,2 4,5 5,0 6,1 10,7 5 3 8 4 N 1026,6 6 0,0
17.11.2017 22:00:00 5,2 4,3 5,0 6,1 10,7 4 2 7 4 NW 1026,6 6 0,0
17.11.2017 21:00:00 5,3 4,4 5,1 6,0 10,7 2 1 9 5 - 1026,7 8 0,0
17.11.2017 20:00:00 5,3 4,3 5,2 6,0 10,7 4 2 9 5 - 1026,6 10 0,0
17.11.2017 19:00:00 5,3 4,1 5,1 6,0 10,7 4 2 14 7 NNE 1026,8 10 0,0
17.11.2017 18:00:00 5,2 4,2 5,1 5,9 10,8 9 5 18 10 NE 1026,9 10 0,0
17.11.2017 17:00:00 5,3 4,1 5,3 5,8 10,8 8 4 20 11 N 1026,9 8 0,0
17.11.2017 16:00:00 5,5 4,0 5,8 5,7 10,8 5 3 15 8 NNE 1026,8 6 0,0
17.11.2017 15:00:00 5,5 4,1 6,1 5,6 10,8 8 4 14 7 N 1026,8 6 0,0
17.11.2017 14:00:00 5,1 3,6 6,0 5,4 10,8 5 3 12 6 N 1027,2 5 0,0
17.11.2017 13:00:00 4,7 3,0 4,4 5,4 10,8 6 3 10 5 NNE 1027,6 5 0,0
17.11.2017 12:00:00 3,7 2,5 3,6 5,3 10,8 5 3 9 5 NE 1028,1 4,7 0,0

tt = Température de l'air
td = dewpoint
tt 5cm = Température de l'air 5cm
tt -20cm = Température de l'air -20cm
tt -100cm = Température de l'air -100cm
ff = Vitesse du vent
fx = gusts
dd = Direction du vent
ppp = reduced air pressure
vv = visibility
rr = Quantités de précipitations

stations d'obs. à proximité